Time,TemperatureF,DewpointF,PressureIn,WindDirection,WindDirectionDegrees,WindSpeedMPH,WindSpeedGustMPH,Humidity,HourlyPrecipIn,Conditions,Clouds,dailyrainin,SoftwareType,DateUTC
2013-10-22 00:13:00,44.6,43.0,29.98,ENE,78,0.0,0.0,94,0.00,,,0.00,weatherlink.com 1.10,2013-10-22 04:13:00,
2013-10-22 00:28:00,44.3,43.0,29.97,ENE,78,0.0,0.0,94,0.00,,,0.00,weatherlink.com 1.10,2013-10-22 04:28:00,
2013-10-22 00:43:00,43.8,42.0,29.97,ENE,78,0.0,0.0,94,0.00,,,0.00,weatherlink.com 1.10,2013-10-22 04:43:00,
2013-10-22 00:58:00,43.4,42.0,29.97,ENE,78,0.0,0.0,94,0.00,,,0.00,weatherlink.com 1.10,2013-10-22 04:58:00,
2013-10-22 01:13:00,43.0,41.0,29.98,ENE,78,0.0,0.0,94,0.00,,,0.00,weatherlink.com 1.10,2013-10-22 05:13:00,
2013-10-22 01:28:00,42.7,41.0,29.98,ENE,78,0.0,0.0,95,0.00,,,0.00,weatherlink.com 1.10,2013-10-22 05:28:00,
2013-10-22 01:43:00,42.5,41.0,29.97,ENE,78,0.0,0.0,95,0.00,,,0.00,weatherlink.com 1.10,2013-10-22 05:43:00,
2013-10-22 01:58:00,42.2,41.0,29.98,ENE,78,0.0,0.0,95,0.00,,,0.00,weatherlink.com 1.10,2013-10-22 05:58:00,
2013-10-22 02:13:00,41.8,41.0,29.97,ENE,78,0.0,0.0,95,0.00,,,0.00,weatherlink.com 1.10,2013-10-22 06:13:00,
2013-10-22 02:28:00,41.5,40.0,29.98,ENE,78,0.0,0.0,95,0.00,,,0.00,weatherlink.com 1.10,2013-10-22 06:28:00,
2013-10-22 02:43:00,41.1,40.0,29.97,ENE,78,0.0,0.0,95,0.00,,,0.00,weatherlink.com 1.10,2013-10-22 06:43:00,
2013-10-22 02:58:00,40.9,40.0,29.97,ENE,78,0.0,0.0,95,0.00,,,0.00,weatherlink.com 1.10,2013-10-22 06:58:00,
2013-10-22 03:13:00,40.7,39.0,29.97,ENE,78,0.0,0.0,95,0.00,,,0.00,weatherlink.com 1.10,2013-10-22 07:13:00,
2013-10-22 03:28:00,40.4,39.0,29.97,ENE,78,0.0,0.0,95,0.00,,,0.00,weatherlink.com 1.10,2013-10-22 07:28:00,
2013-10-22 03:43:00,40.0,39.0,29.97,ENE,78,0.0,0.0,95,0.00,,,0.00,weatherlink.com 1.10,2013-10-22 07:43:00,
2013-10-22 03:58:00,39.9,39.0,29.95,ENE,78,0.0,0.0,96,0.00,,,0.00,weatherlink.com 1.10,2013-10-22 07:58:00,
2013-10-22 04:13:00,39.8,39.0,29.95,ENE,78,0.0,0.0,95,0.00,,,0.00,weatherlink.com 1.10,2013-10-22 08:13:00,
2013-10-22 04:28:00,39.6,39.0,29.95,ENE,78,0.0,0.0,96,0.00,,,0.00,weatherlink.com 1.10,2013-10-22 08:28:00,
2013-10-22 04:43:00,39.2,38.0,29.95,ENE,78,0.0,0.0,95,0.00,,,0.00,weatherlink.com 1.10,2013-10-22 08:43:00,
2013-10-22 04:58:00,39.1,38.0,29.95,East,83,0.0,0.0,96,0.00,,,0.00,weatherlink.com 1.10,2013-10-22 08:58:00,
2013-10-22 05:13:00,39.2,38.0,29.95,SSE,149,0.0,0.0,96,0.00,,,0.00,weatherlink.com 1.10,2013-10-22 09:13:00,
2013-10-22 05:28:00,39.1,38.0,29.94,SSE,149,0.0,0.0,96,0.00,,,0.00,weatherlink.com 1.10,2013-10-22 09:28:00,
2013-10-22 05:43:00,38.9,38.0,29.94,SSE,149,0.0,0.0,96,0.00,,,0.00,weatherlink.com 1.10,2013-10-22 09:43:00,
2013-10-22 05:58:00,38.5,38.0,29.95,SSE,149,0.0,0.0,96,0.00,,,0.00,weatherlink.com 1.10,2013-10-22 09:58:00,
2013-10-22 06:13:00,38.3,37.0,29.94,SSE,149,0.0,0.0,96,0.00,,,0.00,weatherlink.com 1.10,2013-10-22 10:13:00,
2013-10-22 06:28:00,38.2,37.0,29.93,SSE,149,0.0,0.0,96,0.00,,,0.00,weatherlink.com 1.10,2013-10-22 10:28:00,
2013-10-22 06:43:00,38.1,37.0,29.94,SSE,149,0.0,0.0,96,0.00,,,0.00,weatherlink.com 1.10,2013-10-22 10:43:00,
2013-10-22 06:59:00,37.9,37.0,29.93,SSE,149,0.0,0.0,96,0.00,,,0.00,weatherlink.com 1.10,2013-10-22 10:59:00,
2013-10-22 07:14:00,37.8,37.0,29.92,SSE,149,0.0,0.0,96,0.00,,,0.00,weatherlink.com 1.10,2013-10-22 11:14:00,
2013-10-22 07:29:00,37.8,37.0,29.92,West,262,0.0,0.0,96,0.00,,,0.00,weatherlink.com 1.10,2013-10-22 11:29:00,
2013-10-22 07:44:00,37.7,37.0,29.93,West,262,0.0,0.0,96,0.00,,,0.00,weatherlink.com 1.10,2013-10-22 11:44:00,
2013-10-22 07:59:00,37.7,37.0,29.93,West,262,0.0,0.0,96,0.00,,,0.00,weatherlink.com 1.10,2013-10-22 11:59:00,
2013-10-22 08:14:00,38.0,37.0,29.93,West,262,0.0,0.0,96,0.00,,,0.00,weatherlink.com 1.10,2013-10-22 12:14:00,
2013-10-22 08:29:00,38.8,38.0,29.93,West,262,0.0,0.0,96,0.00,,,0.00,weatherlink.com 1.10,2013-10-22 12:29:00,
2013-10-22 08:44:00,40.9,40.0,29.93,West,262,0.0,0.0,96,0.00,,,0.00,weatherlink.com 1.10,2013-10-22 12:44:00,
2013-10-22 08:59:00,42.0,41.0,29.93,West,262,0.0,0.0,97,0.00,,,0.00,weatherlink.com 1.10,2013-10-22 12:59:00,
2013-10-22 09:14:00,42.8,42.0,29.93,West,262,0.0,0.0,97,0.00,,,0.00,weatherlink.com 1.10,2013-10-22 13:14:00,
2013-10-22 09:29:00,43.6,43.0,29.94,West,262,0.0,0.0,97,0.00,,,0.00,weatherlink.com 1.10,2013-10-22 13:29:00,
2013-10-22 09:44:00,45.2,44.0,29.93,West,262,0.0,0.0,97,0.00,,,0.00,weatherlink.com 1.10,2013-10-22 13:44:00,
2013-10-22 09:59:00,47.0,46.0,29.93,West,262,0.0,0.0,97,0.00,,,0.00,weatherlink.com 1.10,2013-10-22 13:59:00,
2013-10-22 10:14:00,48.1,47.0,29.93,West,262,0.0,0.0,97,0.00,,,0.00,weatherlink.com 1.10,2013-10-22 14:14:00,
2013-10-22 10:29:00,49.8,48.0,29.93,South,185,0.0,0.0,94,0.00,,,0.00,weatherlink.com 1.10,2013-10-22 14:29:00,
2013-10-22 10:44:00,51.6,49.0,29.93,West,262,0.0,0.0,92,0.00,,,0.00,weatherlink.com 1.10,2013-10-22 14:44:00,
2013-10-22 10:59:00,53.1,49.0,29.91,NW,319,0.0,0.0,85,0.00,,,0.00,weatherlink.com 1.10,2013-10-22 14:59:00,
2013-10-22 11:14:00,55.9,48.0,29.91,NW,315,0.0,0.0,74,0.00,,,0.00,weatherlink.com 1.10,2013-10-22 15:14:00,
2013-10-22 11:29:00,56.8,47.0,29.91,NE,37,0.0,0.0,70,0.00,,,0.00,weatherlink.com 1.10,2013-10-22 15:29:00,
2013-10-22 11:44:00,56.9,47.0,29.91,East,86,0.0,0.0,70,0.00,,,0.00,weatherlink.com 1.10,2013-10-22 15:44:00,
2013-10-22 11:59:00,57.2,47.0,29.90,North,7,0.0,0.0,70,0.00,,,0.00,weatherlink.com 1.10,2013-10-22 15:59:00,
2013-10-22 12:14:00,58.7,48.0,29.89,West,263,0.0,0.0,67,0.00,,,0.00,weatherlink.com 1.10,2013-10-22 16:14:00,
2013-10-22 12:29:00,59.4,49.0,29.90,South,175,0.0,0.0,68,0.00,,,0.00,weatherlink.com 1.10,2013-10-22 16:29:00,
2013-10-22 12:44:00,60.8,49.0,29.89,North,358,0.0,0.0,65,0.00,,,0.00,weatherlink.com 1.10,2013-10-22 16:44:00,
2013-10-22 12:59:00,60.4,48.0,29.89,ESE,116,0.0,0.0,63,0.00,,,0.00,weatherlink.com 1.10,2013-10-22 16:59:00,
2013-10-22 13:14:00,61.2,47.0,29.88,East,91,0.0,0.0,61,0.00,,,0.00,weatherlink.com 1.10,2013-10-22 17:14:00,
2013-10-22 13:29:00,63.6,51.0,29.87,North,8,0.0,0.0,63,0.00,,,0.00,weatherlink.com 1.10,2013-10-22 17:29:00,
2013-10-22 13:44:00,62.9,47.0,29.86,NNW,328,0.0,0.0,56,0.00,,,0.00,weatherlink.com 1.10,2013-10-22 17:44:00,
2013-10-22 13:59:00,62.6,46.0,29.86,ENE,76,0.0,0.0,56,0.00,,,0.00,weatherlink.com 1.10,2013-10-22 17:59:00,
2013-10-22 14:15:00,62.5,47.0,29.85,East,93,0.0,0.0,57,0.00,,,0.00,weatherlink.com 1.10,2013-10-22 18:15:00,
2013-10-22 14:30:00,62.9,47.0,29.85,ENE,60,0.0,0.0,57,0.00,,,0.00,weatherlink.com 1.10,2013-10-22 18:30:00,
2013-10-22 14:45:00,62.1,47.0,29.85,NNE,17,0.0,0.0,58,0.00,,,0.00,weatherlink.com 1.10,2013-10-22 18:45:00,
2013-10-22 15:00:00,61.7,46.0,29.85,ENE,73,0.0,0.0,56,0.00,,,0.00,weatherlink.com 1.10,2013-10-22 19:00:00,
2013-10-22 15:15:00,61.3,45.0,29.85,East,99,0.0,0.0,56,0.00,,,0.00,weatherlink.com 1.10,2013-10-22 19:15:00,
2013-10-22 15:30:00,61.2,46.0,29.85,NE,44,0.0,0.0,58,0.00,,,0.00,weatherlink.com 1.10,2013-10-22 19:30:00,
2013-10-22 15:45:00,60.7,45.0,29.85,ESE,103,0.0,0.0,56,0.00,,,0.00,weatherlink.com 1.10,2013-10-22 19:45:00,
2013-10-22 16:00:00,60.6,44.0,29.85,East,87,0.0,0.0,55,0.00,,,0.00,weatherlink.com 1.10,2013-10-22 20:00:00,
2013-10-22 16:15:00,59.6,44.0,29.85,East,97,0.0,0.0,56,0.00,,,0.00,weatherlink.com 1.10,2013-10-22 20:15:00,
2013-10-22 16:30:00,59.4,43.0,29.86,ENE,77,0.0,0.0,55,0.00,,,0.00,weatherlink.com 1.10,2013-10-22 20:30:00,
2013-10-22 16:45:00,59.0,43.0,29.85,East,97,0.0,0.0,56,0.00,,,0.00,weatherlink.com 1.10,2013-10-22 20:45:00,
2013-10-22 17:00:00,58.6,43.0,29.85,North,2,0.0,0.0,57,0.00,,,0.00,weatherlink.com 1.10,2013-10-22 21:00:00,
2013-10-22 17:15:00,58.0,42.0,29.85,ENE,72,0.0,0.0,56,0.00,,,0.00,weatherlink.com 1.10,2013-10-22 21:15:00,
2013-10-22 17:30:00,57.4,42.0,29.86,SE,129,0.0,0.0,57,0.00,,,0.00,weatherlink.com 1.10,2013-10-22 21:30:00,
2013-10-22 17:45:00,57.0,43.0,29.86,North,355,0.0,0.0,60,0.00,,,0.00,weatherlink.com 1.10,2013-10-22 21:45:00,
2013-10-22 18:00:00,56.4,43.0,29.86,North,4,0.0,0.0,62,0.00,,,0.00,weatherlink.com 1.10,2013-10-22 22:00:00,
2013-10-22 18:15:00,55.9,42.0,29.86,ENE,77,0.0,0.0,60,0.00,,,0.00,weatherlink.com 1.10,2013-10-22 22:15:00,
2013-10-22 18:30:00,55.1,42.0,29.85,East,87,0.0,0.0,62,0.00,,,0.00,weatherlink.com 1.10,2013-10-22 22:30:00,
2013-10-22 18:45:00,54.3,42.0,29.86,East,85,0.0,0.0,64,0.00,,,0.00,weatherlink.com 1.10,2013-10-22 22:45:00,
2013-10-22 19:00:00,53.5,42.0,29.87,East,95,0.0,0.0,65,0.00,,,0.00,weatherlink.com 1.10,2013-10-22 23:00:00,
2013-10-22 19:15:00,52.7,42.0,29.87,East,90,0.0,0.0,66,0.00,,,0.00,weatherlink.com 1.10,2013-10-22 23:15:00,
2013-10-22 19:30:00,51.9,42.0,29.87,East,81,0.0,0.0,68,0.00,,,0.00,weatherlink.com 1.10,2013-10-22 23:30:00,
2013-10-22 19:45:00,51.4,42.0,29.87,NW,325,0.0,0.0,69,0.00,,,0.00,weatherlink.com 1.10,2013-10-22 23:45:00,
2013-10-22 20:00:00,50.5,42.0,29.88,North,349,0.0,0.0,72,0.00,,,0.00,weatherlink.com 1.10,2013-10-23 00:00:00,
2013-10-22 20:15:00,49.2,42.0,29.87,North,351,0.0,0.0,75,0.00,,,0.00,weatherlink.com 1.10,2013-10-23 00:15:00,
2013-10-22 20:30:00,48.6,42.0,29.88,North,352,0.0,0.0,78,0.00,,,0.00,weatherlink.com 1.10,2013-10-23 00:30:00,
2013-10-22 20:45:00,49.6,42.0,29.87,East,80,0.0,0.0,76,0.00,,,0.00,weatherlink.com 1.10,2013-10-23 00:45:00,
2013-10-22 21:00:00,50.5,42.0,29.86,East,82,0.0,0.0,73,0.00,,,0.00,weatherlink.com 1.10,2013-10-23 01:00:00,
2013-10-22 21:15:00,50.4,42.0,29.87,NNW,334,0.0,0.0,74,0.00,,,0.00,weatherlink.com 1.10,2013-10-23 01:15:00,
2013-10-22 21:30:00,49.9,42.0,29.86,East,95,0.0,0.0,74,0.00,,,0.00,weatherlink.com 1.10,2013-10-23 01:30:00,
2013-10-22 21:45:00,50.3,42.0,29.85,NNE,21,0.0,0.0,73,0.00,,,0.00,weatherlink.com 1.10,2013-10-23 01:45:00,
2013-10-22 22:00:00,50.1,42.0,29.86,SSW,200,0.0,0.0,73,0.00,,,0.00,weatherlink.com 1.10,2013-10-23 02:00:00,
2013-10-22 22:15:00,49.7,41.0,29.86,NNW,328,0.0,0.0,72,0.00,,,0.00,weatherlink.com 1.10,2013-10-23 02:15:00,
2013-10-22 22:30:00,49.5,42.0,29.85,East,95,0.0,0.0,76,0.00,,,0.00,weatherlink.com 1.10,2013-10-23 02:30:00,
2013-10-22 22:45:00,48.8,42.0,29.85,SE,141,0.0,0.0,78,0.00,,,0.00,weatherlink.com 1.10,2013-10-23 02:45:00,
2013-10-22 23:00:00,49.0,42.0,29.85,SSW,206,0.0,0.0,77,0.00,,,0.00,weatherlink.com 1.10,2013-10-23 03:00:00,
2013-10-22 23:15:00,48.8,43.0,29.84,SSW,206,0.0,0.0,79,0.00,,,0.00,weatherlink.com 1.10,2013-10-23 03:15:00,
2013-10-22 23:30:00,48.6,42.0,29.84,WSW,239,0.0,0.0,79,0.00,,,0.00,weatherlink.com 1.10,2013-10-23 03:30:00,
2013-10-22 23:45:00,48.1,42.0,29.84,South,180,0.0,0.0,79,0.00,,,0.00,weatherlink.com 1.10,2013-10-23 03:45:00,